This is the latest recevied weather packets stored in our database for station/object CE7LGA-10. If no packets are shown the sender has not sent any weather packets the latest 10 day(s).
| Time | Temp. | Humidity | Pressure | Rain* | Wind** | Luminosity | Snow |
|---|---|---|---|---|---|---|---|
| 1787867604 | 15° C | 69% | 992.3 hPa | - | - | - | - |
| 1787866704 | 15° C | 69% | 992.2 hPa | - | - | - | - |
| 1787865803 | 15° C | 69% | 992 hPa | - | - | - | - |
| 1787864903 | 15° C | 69% | 991.8 hPa | - | - | - | - |
| 1787864003 | 15° C | 67% | 991.7 hPa | - | - | - | - |
| 1787863103 | 15° C | 67% | 991.7 hPa | - | - | - | - |
| 1787862203 | 15° C | 68% | 991.5 hPa | - | - | - | - |
| 1787861303 | 14.44° C | 68% | 991.3 hPa | - | - | - | - |
| 1787860403 | 14.44° C | 68% | 991.3 hPa | - | - | - | - |
| 1787859503 | 14.44° C | 68% | 991.2 hPa | - | - | - | - |
| 1787858603 | 14.44° C | 69% | 991.5 hPa | - | - | - | - |
| 1787857703 | 14.44° C | 69% | 991.2 hPa | - | - | - | - |
| 1787856803 | 13.89° C | 69% | 991.1 hPa | - | - | - | - |
| 1787855902 | 13.33° C | 69% | 991.1 hPa | - | - | - | - |
| 1787855002 | 15° C | 71% | 991.2 hPa | - | - | - | - |
| 1787854102 | 15° C | 72% | 991.2 hPa | - | - | - | - |
| 1787853202 | 15° C | 78% | 991.5 hPa | - | - | - | - |
| 1787852302 | 14.44° C | 73% | 991.4 hPa | - | - | - | - |
| 1787851402 | 15° C | 70% | 990.5 hPa | - | - | - | - |
| 1787850502 | 15° C | 68% | 990.8 hPa | - | - | - | - |
| 1787849602 | 15° C | 67% | 991.3 hPa | - | - | - | - |
| 1787848704 | 15° C | 68% | 991.4 hPa | - | - | - | - |
| 1787847804 | 15° C | 68% | 991.4 hPa | - | - | - | - |
| 1787846904 | 15° C | 68% | 991.5 hPa | - | - | - | - |
| 1787846004 | 15.56° C | 67% | 991.4 hPa | - | - | - | - |
* Rain since midnight (hover to see other rain measurements)
** Current wind speed in m/s (hover to see current wind gust speed)